Downstream station:
SHEF ID: ENWK1 CROOKED C NR ENGLEWOOD, KS
STATION TYPE:
Regulating: Stage = 6.50, Flow = 243
PRECIP STAGE RIV-FLOW BAT-LOAD
in ft cfs volt
Ccp-Rev Ccp-Rev Ccp-Rev Ccp-Rev
(US/Central)
02/06 00:00 0.00 2.72 8 12.89
02/06 01:00 0.00 2.75 8 12.83
02/06 02:00 0.00 2.79 9 12.83
02/06 03:00 0.00 2.81 9 12.83
02/06 04:00 0.00 2.82 9 12.83
02/06 05:00 0.00 2.84 10 12.83
02/06 06:00 0.00 2.85 10 12.77
02/06 07:00 0.00 2.86 10 12.77
02/06 08:00 0.00 2.88 11 12.71
02/06 09:00 0.00 2.89 11 14.30
02/06 10:00 0.00 2.50 4 14.59
02/06 11:00 0.00 2.41 3 14.59
02/06 12:00 0.00 2.41 3 14.47
02/06 13:00 0.00 2.43 3 14.41
02/06 14:00 0.00 2.45 4 14.35
02/06 15:00 0.00 2.48 4 14.30
02/06 16:00 0.00 2.48 4 14.35
02/06 17:00 0.00 2.47 4 14.12
02/06 18:00 0.00 2.46 4 14.06
02/06 19:00 0.00 2.45 4 13.53
02/06 20:00 0.00 2.45 4 13.07
02/06 21:00 0.00 2.44 4 12.95
02/06 22:00 0.00 2.44 4 12.89
02/06 23:00 ---- ---- ---- ----